Home   Weather   Lanchow   Past weeks

Flag for China Past Weather in Lanchow, Gansu, China — Yesterday and Last 2 Weeks

Now
73 °F

Scattered clouds.


Feels Like: 77 °F
Forecast: 57 / 82 °F
Wind: 8 mph from East

Location: Lanzhou / Zhongchuan

Current Time: Jul 28, 2017 at 7:10:22 pm

Latest Report: Jul 28, 2017 at 6:00 pm


Visibility: N/A

Pressure: 30.07 "Hg (25.20 "Hg at 1531m altitude)

Humidity: 57%

Dew Point: 57 °F

Location of LanchowLocation

Past Weather in Lanchow — Graph

°F

Lanchow Temperature Yesterday

Maximum temperature yesterday: 63 °F (at 12:00 am)
Minimum temperature yesterday: 55 °F (at 11:00 pm)
Average temperature yesterday: 59 °F

High & Low Weather Summary for the Past Weeks

 TemperatureHumidityPressure
High93 °F (Jul 19, 3:00 pm)100% (Jul 27, 5:00 am)30.21 "Hg (Jul 27, 5:00 am)
Low55 °F (Jul 27, 11:00 pm)16% (Jul 13, 6:00 pm)29.77 "Hg (Jul 13, 6:00 pm)
Average72 °F56%29.98 "Hg
* Reported Jul 13 6:00 pm — Jul 28 6:00 pm, Lanchow. Weather by CustomWeather, © 2017

Note: Actual official high and low records may vary slightly from our data, if they occured in-between our weather recording intervals... More about our weather records

Advertising

Lanchow Weather History for the Previous 24 Hours

Scroll right to see more
 ConditionsComfort  
Time TempWeatherWind HumidityBarometerVisibility
6:00 pm
Fri, Jul 28
73 °FScattered clouds.8 mph57%30.07 "HgN/A
5:00 pm75 °FPassing clouds.6 mph54%30.09 "HgN/A
4:00 pm72 °FPassing clouds.3 mph61%30.09 "HgN/A
3:00 pm72 °FScattered clouds.3 mph61%30.09 "HgN/A
2:00 pm72 °FScattered clouds.3 mph57%30.12 "HgN/A
1:00 pm70 °FScattered clouds.6 mph64%30.12 "HgN/A
12:00 pm66 °FPassing clouds.6 mph68%30.12 "HgN/A
11:00 am64 °FPassing clouds.6 mph78%30.15 "HgN/A
10:00 am63 °FScattered clouds.3 mph77%30.15 "HgN/A
9:00 am59 °FScattered clouds.1 mph82%30.15 "Hg4 mi
8:00 am55 °FFog.1 mph94%30.15 "Hg3 mi
7:00 am55 °FFog.1 mph94%30.15 "Hg2 mi
6:00 am55 °FFog.1 mph94%30.12 "Hg2 mi
5:00 am55 °FFog.3 mph94%30.12 "Hg1 mi
4:00 am55 °FOvercast.3 mph94%30.15 "Hg4 mi
3:00 am55 °FOvercast.1 mph94%30.15 "HgN/A
2:00 am55 °FLight rain. Overcast.1 mph88%30.15 "HgN/A
1:00 am55 °FPassing clouds.1 mph94%30.18 "HgN/A
12:00 am55 °FPassing clouds.1 mph94%30.18 "HgN/A
11:00 pm
Thu, Jul 27
55 °FPassing clouds.1 mph94%30.21 "HgN/A
10:00 pm57 °FSprinkles. Passing clouds.1 mph88%30.21 "HgN/A
9:00 pm57 °FLight rain. Overcast.3 mph82%30.21 "HgN/A
8:00 pm57 °FLight rain. Overcast.6 mph88%30.21 "HgN/A
7:00 pm57 °FLight rain. More clouds than sun.8 mph82%30.18 "HgN/A
Weather by CustomWeather, © 2017

See weather overviewHow to use our weather pages